Location: PSU-Greenbush Astrophysical Observatory
(37.5140°N, 94.9880°W)
Time: 21:13:14
(UTC-05:00)

CUTE 1.7 + AOD 2 - Pass Details

Date: 29 February 2020
Orbit: 593 x 612 km, 97.6° (Epoch: 06 April)

Event Time Altitude Azimuth Distance (km) Brightness Sun altitude
Rises 04:46:44 0° 27° (NNE) 2,838 ? -25.5°
Reaches altitude 10° 04:49:17 10° 42° (NE) 1,930 ? -25.1°
Maximum altitude 04:52:38 23° 95° (E) 1,274 ? -24.4°
Drops below altitude 10° 04:55:58 10° 148° (SSE) 1,919 ? -23.7°
Sets 04:58:29 0° 163° (SSE) 2,816 ? -23.3°
